{"data":{"norad_id":52614,"epoch":"2026-05-24T22:10:13.074816Z","epoch_age_seconds":81607,"freshness":"FRESH","line1":"1 52614U 22052S   26144.92376244  .00053876  00000+0  86689-3 0  9991","line2":"2 52614  53.2075 225.4060 0001103 170.4651 189.6382 15.52478294223371","mean_motion":15.52478294,"eccentricity":0.0001103,"inclination_deg":53.2075,"raan_deg":225.406,"arg_perigee_deg":170.4651,"mean_anomaly_deg":189.6382,"bstar":0.00086689,"rev_number":22337,"period_min":92.754920024666,"perigee_km":408.7441623461,"apogee_km":410.24151348835,"semimajor_km":6787.6298379172,"source":"CELESTRAK","updated_at":"2026-05-25T13:38:17.200069Z"}}